Eagle Lake, FL

10:09 PM EDT on August 27, 2016 (GMT -0400)
Bartow Municipal

Weather History for KBOW - August, 2014

Change the Weather History Date:

Wednesday, August 13, 2014

  Actual Average Record
Temperature  
Mean Temperature 80 °F -  
Max Temperature 89 °F 90 °F 99 °F (1951)
Min Temperature 71 °F 71 °F 65 °F (1947)
Cooling Degree Days 15    
Growing Degree Days 30 (Base 50)    
Moisture  
Dew Point 74 °F    
Average Humidity 90    
Maximum Humidity 100    
Minimum Humidity 55    
Precipitation  
Precipitation 0.00 in - - ()
Sea Level Pressure  
Sea Level Pressure 30.01 in    
Wind  
Wind Speed 2 mph (South)    
Max Wind Speed 10 mph    
Max Gust Speed -    
Visibility 10 miles    
Events Thunderstorm    
Averages and records for this station are not official NWS values.
T = Trace of Precipitation, MM = Missing Value Source: NWS Daily Summary

Daily Weather History Graph

Daily Weather History Graph

Search for Another Location

Airport or City:

Trip Planner

Search our weather history database for the weather conditions in past years. The results will help you decide how hot, cold, wet, or windy it might be!

Date:

Astronomy

Aug. 13, 2014 Rise Set
Actual Time 6:56 AM EDT 8:07 PM EDT
Civil Twilight 6:31 AM EDT 8:31 PM EDT
Nautical Twilight 6:02 AM EDT 9:01 PM EDT
Astronomical Twilight 5:32 AM EDT 9:31 PM EDT
Moon 10:16 PM EDT (8/13) 10:01 AM EDT (8/13)
Length of Visible Light 14h 00m
Length of Day
13h 11m
Waning Gibbous, 88% of the Moon is Illuminated
Aug 13
Waning Gibbous
Aug 17
Last Quarter
Aug 25
New
Sep 2
First Quarter
Sep 8
Full

Hourly Weather History & Observations

Time (EDT) Temp. Heat Index Dew Point Humidity Pressure Visibility Wind Dir Wind Speed Gust Speed Precip Events Conditions
12:15 AM 75.2 °F - 75.2 °F 100% 30.03 in 10.0 mi Calm Calm - N/A   Clear
12:55 AM 75.2 °F - 75.2 °F 100% 30.02 in 10.0 mi Calm Calm - N/A   Clear
1:15 AM 73.4 °F - 73.4 °F 100% 30.02 in 10.0 mi SE 3.5 mph - N/A   Clear
1:35 AM 73.4 °F - 73.4 °F 100% 30.02 in 10.0 mi Calm Calm - N/A   Clear
2:15 AM 73.4 °F - 73.4 °F 100% 30.00 in 10.0 mi SE 3.5 mph - N/A   Clear
2:35 AM 73.4 °F - 73.4 °F 100% 30.00 in 10.0 mi Calm Calm - N/A   Clear
2:55 AM 73.4 °F - 73.4 °F 100% 30.00 in 10.0 mi Calm Calm - N/A   Clear
3:15 AM 75.2 °F - 75.2 °F 100% 30.00 in 10.0 mi Calm Calm - N/A   Clear
3:35 AM 73.4 °F - 73.4 °F 100% 30.00 in 10.0 mi Calm Calm - N/A   Clear
3:55 AM 73.4 °F - 73.4 °F 100% 30.00 in 10.0 mi Calm Calm - N/A   Clear
4:15 AM 73.4 °F - 73.4 °F 100% 30.00 in 10.0 mi Calm Calm - N/A   Clear
4:35 AM 73.4 °F - 73.4 °F 100% 30.00 in 10.0 mi South 3.5 mph - N/A   Clear
4:55 AM 73.4 °F - 73.4 °F 100% 30.00 in 10.0 mi Calm Calm - N/A   Clear
5:15 AM 73.4 °F - - N/A% 30.00 in 10.0 mi Calm Calm - N/A   Clear
5:35 AM 73.4 °F - - N/A% 30.00 in 10.0 mi Calm Calm - N/A   Clear
5:55 AM 73.4 °F - - N/A% 30.01 in 10.0 mi Calm Calm - N/A   Clear
6:15 AM 73.4 °F - - N/A% 30.01 in 10.0 mi Calm Calm - N/A   Clear
6:35 AM 71.6 °F - - N/A% 30.02 in 10.0 mi SSE 3.5 mph - N/A   Clear
6:55 AM 71.6 °F - - N/A% 30.02 in 10.0 mi Calm Calm - N/A   Clear
7:15 AM 73.4 °F - - N/A% 30.03 in 10.0 mi Calm Calm - N/A   Clear
7:56 AM 75.2 °F - 75.2 °F 100% 30.03 in 10.0 mi Calm Calm - N/A   Partly Cloudy
8:47 AM 78.8 °F - 77.0 °F 94% 30.04 in 10.0 mi SSE 5.8 mph - N/A   Partly Cloudy
9:47 AM 84.2 °F 92.3 °F 75.2 °F 74% 30.04 in 10.0 mi South 6.9 mph - N/A   Partly Cloudy
11:47 AM 89.6 °F 98.2 °F 73.4 °F 59% 30.05 in 10.0 mi SW 8.1 mph - N/A   Mostly Cloudy
1:47 PM 84.2 °F 90.9 °F 73.4 °F 70% 30.03 in 10.0 mi South 6.9 mph - N/A   Mostly Cloudy
2:47 PM 87.8 °F 95.6 °F 73.4 °F 62% 30.01 in 10.0 mi WSW 6.9 mph - N/A   Scattered Clouds
4:47 PM 87.8 °F 92.6 °F 69.8 °F 55% 29.99 in 10.0 mi West 4.6 mph - N/A Thunderstorm Mostly Cloudy
5:35 PM 80.6 °F 87.1 °F 77.0 °F 89% 29.99 in 10.0 mi SSE 5.8 mph - N/A Thunderstorm Clear
5:55 PM 80.6 °F 85.4 °F 73.4 °F 79% 30.00 in 10.0 mi South 5.8 mph - N/A   Clear
6:15 PM 80.6 °F 85.4 °F 73.4 °F 79% 29.99 in 10.0 mi South 10.4 mph - N/A   Clear
6:35 PM 78.8 °F - 75.2 °F 89% 29.99 in 10.0 mi South 5.8 mph - N/A   Clear
6:55 PM 78.8 °F - 73.4 °F 83% 30.00 in 10.0 mi SSE 6.9 mph - N/A   Clear
7:15 PM 78.8 °F - 75.2 °F 89% 30.01 in 10.0 mi SE 3.5 mph - N/A   Clear
7:35 PM 78.8 °F - 75.2 °F 89% 30.01 in 10.0 mi South 4.6 mph - N/A   Clear
7:55 PM 78.8 °F - 75.2 °F 89% 30.01 in 10.0 mi South 4.6 mph - N/A   Clear
8:15 PM 78.8 °F - 75.2 °F 89% 30.01 in 10.0 mi South 3.5 mph - N/A   Clear
8:55 PM 77.0 °F - 75.2 °F 94% 30.02 in 10.0 mi South 4.6 mph - N/A   Clear
9:35 PM 77.0 °F - 75.2 °F 94% 30.01 in 10.0 mi SSW 3.5 mph - N/A   Clear
10:55 PM 77.0 °F - 77.0 °F 100% 30.02 in 10.0 mi South 4.6 mph - N/A   Clear